AirNav   Air Wisconsin pilot careers
 
 1172 users online  

0B1 Bethel Regional Airport
Bethel, Maine, USA

GOING TO BETHEL?


FAA INFORMATION EFFECTIVE 19 JULY 2018

Location

FAA Identifier: 0B1
Lat/Long: 44-25-30.6000N / 070-48-35.7000W
44-25.510000N / 070-48.595000W
44.4251667 / -70.8099167
(estimated)
Elevation: 674 ft. / 205.4 m (surveyed)
Variation: 17W (1985)
From city: 2 miles NW of BETHEL, ME
Time zone: UTC -4 (UTC -5 during Standard Time)
Zip code: 04217

Airport Operations

Airport use: Open to the public
Activation date: 12/2001
Control tower: no
ARTCC: BOSTON CENTER
FSS: BANGOR FLIGHT SERVICE STATION
NOTAMs facility: BGR (NOTAM-D service available)
Attendance: UNATNDD
Wind indicator: lighted, LGTD WINDSOCK AND APRON LGHTS ON CONTINUOUSLY AT NIGHT.
Segmented circle: yes
Lights: ACTVT MIRL RY 14/32 PCL- KEY FREQ 122.9 7 TIMES HIGH, 5 TIMES MEDIUM, 3 TIMES LOW INTENSITY.
Beacon: white-green (lighted land airport)
Operates sunset to sunrise.

Airport Communications

CTAF: 122.9
WX AWOS-AV: 122.9 (207-512-2516)
PORTLAND APPROACH: 125.5
PORTLAND DEPARTURE: 125.5
WX ASOS at BML (18 nm NW): 135.175 (603-449-3328)
  • CLNC DLVY THRU FLIGHT SERVICES 1-800-WX-BRIEF.

Nearby radio navigation aids

VOR radial/distance  VOR name  Freq  Var
BMLr145/20.4BERLIN VOR/DME110.4017W

 
NDB name  Hdg/Dist  Freq  Var  ID
RANGELEY203/30.722118WRQM .-. --.- --
MAHN101/37.738617WGMA --. -- .-

Airport Services

Fuel available: 100LL
SELF-SERVE AVBL 24 HRS WITH CREDIT CARD.
Parking: tiedowns
Airframe service: NONE
Powerplant service: NONE
Bottled oxygen: NONE
Bulk oxygen: NONE

Runway Information

Runway 14/32

Dimensions: 3818 x 75 ft. / 1164 x 23 m
Surface: asphalt, in good condition
Runway edge lights: medium intensity
Gradient: NW
RUNWAY 14  RUNWAY 32
Latitude: 44-25.694830N44-25.323515N
Longitude: 070-48.948492W070-48.241258W
Elevation: 674.0 ft.656.2 ft.
Gradient: 0.5% UP
Traffic pattern: leftleft
Markings: basic, in fair conditionnonprecision, in fair condition
Runway end identifier lights: yes
Touchdown point: yes, no lightsyes, no lights
Obstructions: 23 ft. tree, 600 ft. from runway, 140 ft. right of centerline, 17:1 slope to clear13 ft. tree, 450 ft. from runway, 140 ft. right of centerline, 19:1 slope to clear

Helipad H1

Dimensions: 220 x 220 ft. / 67 x 67 m
Surface: turf, in poor condition
Latitude: 44-25.510000N
Longitude: 070-48.595000W
Elevation: 674.0 ft.
Traffic pattern: leftleft
Markings: none, in poor condition
Touchdown point: yes, no lightsno

Airport Ownership and Management from official FAA records

Ownership: Publicly-owned
Owner: TOWN OF BETHEL
PO BOX 1660
BETHEL, ME 04217
Phone 207-512-5552
Manager: CHRISTINE LANDES
TOWN OF BETHEL, PO BOX 1660
BETHEL, ME 04217
Phone 207-824-2669
EMERGENCY (POLICE PHONE) 1-800-733-1421. ARPT MGR 207-512-5552.

Airport Operational Statistics

Aircraft based on the field: 20
Single engine airplanes: 17
Multi engine airplanes: 1
Ultralights: 2
    
Aircraft operations: avg 91/week *
53% local general aviation
42% transient general aviation
5% military
* for 12-month period ending 08 August 2016

Additional Remarks

TURKEYS & GEESE ON OR IN VICINITY OF AIRPORT.
UNLGTD MOUNTAINOUS TERRAIN.
CTC AIRPORT INFORMATION LINE 207-512-5552.
POWERED PARACHUTE ACTIVITY OCASSIONALLY IN TERMINAL AREA.
NO FEES FOR PARKING, TIE-DOWN, OVERNIGHT ELECTRICAL A/C HOOK-UP.
ARPT SFC CONDS UNMON BTN 0200-1300Z DLY.
ACTVT AWOS-AV VIA PHONE OR KEY CTAF 3 TIMES.
UNMANNED ACFT WITHIN AN AREA DEFINED AS 3 NM RADIUS OF ARPT SFC-400' AGL DAILY SR-SS.

Instrument Procedures

There are no published instrument procedures at 0B1.

Some nearby airports with instrument procedures:

KBML - Berlin Regional Airport (18 nm NW)
81B - Oxford County Regional Airport (21 nm SE)
KIZG - Eastern Slopes Regional Airport (27 nm S)
KHIE - Mount Washington Regional Airport (32 nm W)
KLEW - Auburn/Lewiston Municipal Airport (32 nm SE)
 
Loc | Ops | Rwys | IFR | FBO | Links
Com | Nav | Svcs | Stats | Notes

Auburn-Lewiston Municipal Airport
 
Area around 0B1 (Bethel Regional Airport)
 
Road maps at: MapQuest Bing Google
 
Aerial photo
WARNING: Photo may not be current or correct
Aerial photo of 0B1 (Bethel Regional Airport)
Photo by Pete Chaisson Portland Flight Services
Photo taken 15-Aug-2014
looking southeast.

Do you have a better or more recent aerial photo of Bethel Regional Airport that you would like to share? If so, please send us your photo.

 
Sectional chart

 
Airport distance calculator
Flying to Bethel Regional Airport? Find the distance to fly.

From to 0B1

Sunrise and sunset
Times for 20-Jul-2018
 Local
(UTC-4)
 Zulu
(UTC)
Morning civil twilight04:4408:44
Sunrise05:1809:18
Sunset20:2100:21
Evening civil twilight20:5500:55

Current date and time
Zulu (UTC)  20-Jul-2018 13:20:07
Local (UTC-4)  20-Jul-2018 09:20:07
 
METAR
KBML 
19nm NW 
201252Z AUTO 00000KT 10SM CLR 17/13 A3022 RMK AO2 SLP235 T01670128
KMWN 
22nm SW 
201252Z 13005KT 90SM FEW180 13/06 RMK
KIZG 
27nm S 
201254Z AUTO 00000KT 10SM CLR 21/14 A3020 RMK AO2 SLP225 T02110144
KCWN 
29nm SW 
201258Z AUTO 29009KT 10SM BKN220 29/M03 A3016 RMK AO2 SLP002 T02861033 $
KHIE 
32nm W 
201252Z AUTO 00000KT 10SM CLR 18/13 A3021 RMK AO2 SLP230 T01830133
K8B0 
33nm N 
201255Z AUTO 00000KT 10SM CLR 18/11 A3025 RMK AO2
KLEW 
33nm SE 
201256Z AUTO 00000KT 10SM CLR 20/14 A3020 RMK AO2 SLP238 T02000144
TAF
KHIE 
32nm W 
201122Z 2012/2112 16005KT P6SM FEW250 FM210900 00000KT 1/4SM FG BKN001
NOTAMs
Click for the latest NOTAMs
NOTAMs are issued by the DoD/FAA and will open in a separate window not controlled by AirNav.

 

 
 

FBO, Fuel Providers, and Aircraft Ground Support

  
 Business Name 
 
 Contact 
 
 Services / Description 
 
Fuel Prices
 
Comments
  
Town of Bethel (self-serve fuel) 207-512-5552
[web site]
[email]
Aviation fuel, Aircraft parking (ramp or tiedown), Passenger terminal and lounge, Courtesy transportation, Pilots lounge / snooze room, Public telephone, ...

More info about Town of Bethel (self-serve fuel)
independent
100LL
SS $4.29 
GUARANTEED
 
   4 read write
SS=Self service
Update Fuel Prices
 

Getting Around: Taxi, Limo, Rental Cars, Mass Transit

  
 Business Name 
 
 Contact 
 
Services / Description
 
Comments
  
Sunday River Stagecoach Shuttle Service 207-357-5783
[web site]
[email]
Ground transportation

More info about Sunday River Stagecoach Shuttle Service
 
   1 read write
 

Would you like to see your business listed on this page?

 If your business provides an interesting product or service to pilots, flight crews, aircraft, or users of the Bethel Regional Airport, you should consider listing it here.  To start the listing process, click on the button below
 
Add a business
 

Other Pages about Bethel Regional Airport

www.bethelregionalairport.com
www.bethelmaine.org/...
www.exploremaine.org/...
 
Update a link
 
Copyright © AirNav, LLC. All rights reserved. Privacy Policy  Contact